Theta_e
311 311 311 311 312 312 312 312 312 312 312 312 311 314 314 315 315 308 301 308 313 322 323 316 312 311 315 313 313 312 300 295 299 302 306 311 308 312 316 314 316 318 318 326 329
311 311 311 311 312 312 312 313 312 312 312 312 313 311 312 314 307 301 310 316 317 320 314 310 305 306 308 311 310 308 299 299 305 306 302 305 308 310 309 311 312 318 327 328 326
311 311 311 311 312 312 312 312 312 312 312 312 312 312 311 311 299 298 319 319 318 320 315 314 311 304 302 310 306 307 299 303 305 307 310 307 304 308 307 308 312 314 323 324 324
310 310 311 311 312 312 312 312 312 312 312 312 312 312 311 305 285 306 316 316 316 315 311 308 307 300 297 303 307 302 305 304 305 307 307 306 309 306 306 309 317 317 326 323 323
310 311 311 311 311 311 312 312 312 312 312 312 311 311 306 295 296 307 315 313 311 309 308 306 304 299 294 301 307 304 306 307 307 308 307 309 307 306 304 308 316 323 325 321 322
310 310 310 310 311 311 311 311 312 312 311 309 310 310 301 288 304 309 309 309 308 306 305 308 305 302 297 298 304 307 307 307 307 307 308 305 304 305 305 307 311 321 322 322 322
310 310 310 310 310 311 311 311 311 310 309 310 312 308 297 294 306 310 309 307 309 305 304 309 309 299 298 296 303 307 302 304 305 306 304 306 300 301 305 305 307 316 319 322 323
309 309 309 310 310 310 310 311 309 309 309 311 311 305 294 307 310 308 308 304 307 309 308 311 311 301 298 301 301 297 300 295 302 304 304 302 293 303 306 304 305 311 315 320 323
309 309 309 310 310 310 310 309 310 309 309 310 305 301 292 308 300 303 307 301 303 307 308 312 308 298 298 294 293 294 290 292 297 303 301 298 294 301 304 305 301 302 310 317 321
308 309 309 309 309 309 308 309 310 308 305 308 303 295 298 294 301 302 306 304 301 303 302 301 295 290 291 292 284 288 289 292 292 299 300 297 296 301 304 302 299 300 303 312 318
308 308 308 308 308 309 304 300 293 294 295 292 292 293 296 302 304 300 303 303 303 300 290 293 288 284 289 293 295 294 292 291 294 299 297 296 296 299 302 298 298 299 301 306 315
308 308 308 308 308 306 304 293 294 296 288 295 297 298 300 303 295 298 303 297 296 290 293 288 284 290 293 294 293 293 292 291 292 296 295 295 295 299 300 299 299 300 301 301 309
308 308 308 308 309 305 299 296 303 300 288 292 297 296 296 299 294 294 298 296 293 290 289 285 287 291 291 290 290 291 290 290 291 293 294 292 289 293 298 301 300 301 301 301 303
308 308 307 308 303 302 298 302 303 303 283 283 288 293 297 299 292 299 301 293 294 289 292 290 292 289 288 288 290 287 294 293 291 289 284 292 281 290 295 296 298 300 299 300 301
308 308 308 307 300 297 300 303 303 299 269 284 287 299 298 294 295 294 300 294 288 290 292 287 289 288 287 288 291 289 294 291 291 288 286 286 281 286 293 292 296 298 300 301 302
308 307 306 304 304 301 303 303 299 281 265 280 288 287 289 292 293 296 295 297 294 290 292 291 294 291 289 292 293 295 291 290 289 286 278 284 282 283 289 291 293 297 299 300 301
305 305 303 303 295 303 302 297 281 270 282 276 281 286 288 287 289 292 289 287 285 283 283 288 289 292 293 289 291 291 286 278 275 275 275 285 282 285 291 293 292 292 294 293 296
305 304 303 303 303 301 298 287 270 273 275 284 284 286 284 286 287 289 288 286 289 287 285 282 277 288 292 289 286 287 286 278 272 274 276 284 278 284 290 292 294 295 294 294 293
305 303 301 302 303 300 291 276 273 275 282 280 283 279 281 284 286 287 284 283 287 288 282 281 282 291 291 293 291 286 281 287 280 275 276 279 282 288 292 291 292 292 293 293 293
300 297 298 302 303 297 285 277 275 282 283 284 275 280 277 279 280 283 283 286 285 289 290 287 281 287 290 292 292 289 290 280 279 270 271 276 278 280 286 289 289 288 289 291 293
298 289 297 301 301 288 279 276 276 285 285 281 279 278 280 280 282 282 282 286 287 287 291 290 287 282 288 286 285 286 284 285 284 280 275 274 276 282 285 287 287 289 290 290 291
296 283 298 300 285 283 279 277 282 283 287 282 282 282 281 282 282 281 281 284 289 289 285 288 285 282 284 290 292 290 286 286 278 277 279 279 277 286 287 287 288 289 290 290 291
285 286 298 297 282 280 276 275 281 281 283 282 280 283 284 281 276 281 282 288 289 288 284 287 284 274 280 285 289 286 289 289 287 285 280 276 277 287 287 286 287 287 290 292 293
286 283 287 290 287 282 277 274 275 284 283 285 283 284 282 278 280 274 281 286 288 289 291 290 285 281 277 281 286 282 287 288 287 278 280 281 282 285 285 286 288 288 289 290 293
285 283 282 280 280 281 280 278 276 274 283 285 281 280 280 272 277 275 279 282 286 289 286 285 278 280 282 283 285 284 285 287 285 285 281 283 284 288 288 287 287 288 289 290 291
283 283 283 281 282 281 279 275 277 279 280 278 279 282 281 277 278 273 280 280 279 284 282 285 273 278 273 282 283 280 284 285 285 287 287 286 285 291 292 290 289 291 291 291 292
294 293 288 283 281 280 279 279 278 282 283 284 283 281 280 281 284 285 286 285 284 280 276 276 278 271 269 278 277 269 278 282 284 287 286 282 287 290 290 291 292 293 293 291 293
Wind_Speed
12 14 15 16 16 17 17 18 18 18 18 19 20 21 19 20 19 17 18 18 17 11 11 12 13 8 1 4 5 7 3 6 11 12 8 10 6 3 5 4 4 5 5 15 19
12 13 15 16 17 18 19 19 19 19 20 20 20 20 21 20 17 22 22 25 22 15 12 11 12 10 6 7 6 7 10 10 11 12 12 15 8 4 1 6 5 10 17 16 12
12 13 15 16 17 18 19 20 20 20 20 20 20 19 18 18 13 11 17 14 22 19 16 14 13 13 12 5 6 7 14 21 27 17 17 17 14 14 3 6 8 12 14 15 13
12 13 15 17 18 18 19 21 21 22 22 21 20 20 16 10 10 4 9 12 11 11 19 17 16 15 11 12 8 5 14 20 31 17 17 15 16 19 8 3 6 9 21 14 14
12 14 15 17 18 19 21 22 22 23 23 23 21 19 12 10 21 19 17 14 9 16 19 21 20 14 15 16 12 13 10 18 17 14 12 16 16 13 18 10 6 15 18 16 16
12 13 15 16 18 20 22 24 25 24 24 24 22 15 11 20 10 6 9 12 13 17 14 20 13 16 7 17 19 11 14 11 13 12 12 12 14 9 13 8 4 12 12 13 14
13 14 16 17 19 21 23 25 26 25 25 18 12 7 10 18 12 7 7 7 16 15 16 19 19 16 8 14 13 13 11 9 11 11 8 9 17 15 15 7 7 8 10 12 13
13 14 16 17 19 22 24 26 27 25 17 13 11 8 6 9 13 10 8 11 11 17 16 15 20 10 10 11 4 8 8 11 13 12 6 7 15 14 11 10 9 9 8 12 13
13 14 16 17 19 22 24 27 25 17 16 16 2 5 6 9 6 13 11 9 14 14 14 16 15 8 4 6 7 10 9 13 9 17 6 9 9 15 15 11 11 8 8 10 12
13 14 16 18 20 22 23 27 17 10 10 3 4 5 2 14 14 10 14 15 9 10 6 12 6 7 6 9 13 15 14 12 12 14 14 13 16 18 18 7 7 8 7 8 10
13 14 16 17 18 19 15 6 8 1 7 3 14 3 12 13 4 11 10 4 6 11 8 13 10 15 18 14 7 8 13 12 7 16 12 14 16 16 14 5 8 8 9 9 10
13 15 17 18 18 11 6 5 6 3 9 15 4 7 8 6 7 16 11 6 5 11 14 10 10 10 10 9 12 14 11 8 7 8 2 10 16 12 10 8 8 9 9 6 6
13 15 17 19 16 4 3 8 6 7 4 9 1 4 10 6 7 14 15 11 6 8 12 8 8 10 8 7 9 13 11 4 3 6 1 3 5 10 14 22 11 10 7 5 8
14 14 16 20 6 5 1 10 7 3 2 12 11 7 14 4 4 11 9 7 6 7 1 4 5 11 8 6 8 11 5 2 10 5 3 7 5 10 17 16 15 14 9 7 6
14 13 13 8 6 5 8 10 5 3 4 16 8 6 7 8 10 6 5 8 6 9 5 0 2 6 4 5 7 3 6 3 7 5 5 5 2 6 7 14 14 12 11 9 9
12 10 13 1 4 7 9 10 3 1 4 9 7 14 15 9 7 1 3 4 0 6 9 7 5 3 5 2 2 6 9 8 6 4 3 8 4 6 4 4 4 6 10 11 10
9 10 7 5 5 10 9 4 2 6 7 10 10 14 12 12 9 7 7 8 6 2 2 5 6 5 3 6 5 3 6 2 3 2 6 3 6 10 5 5 2 3 6 4 3
10 9 1 2 7 8 4 3 8 1 2 7 10 9 11 15 9 10 6 4 6 4 2 3 2 2 2 1 5 4 4 5 6 5 2 6 7 6 3 4 3 5 2 2 0
12 2 2 4 7 5 3 6 1 1 5 8 8 6 7 15 8 6 5 10 7 11 5 5 4 6 2 3 4 4 5 2 2 1 2 5 4 5 9 5 2 1 1 4 5
3 1 2 7 7 3 4 4 0 2 4 6 6 8 7 11 10 9 9 12 8 11 10 2 2 5 7 5 4 1 1 2 2 3 3 5 4 6 3 5 5 3 3 4 5
3 2 3 7 4 5 3 3 1 3 2 5 4 4 6 5 7 8 11 4 14 13 10 7 1 4 3 3 2 4 1 2 1 3 2 1 4 2 8 7 6 5 5 4 5
2 1 3 5 3 2 2 1 3 2 1 1 1 3 4 7 6 8 7 6 12 11 7 7 3 3 1 4 4 3 5 6 2 3 2 1 6 3 7 6 5 6 4 3 1
2 1 1 2 3 3 1 1 1 2 2 1 1 4 5 4 2 7 6 4 8 10 6 7 2 1 3 2 4 3 4 2 4 2 4 2 4 3 5 4 4 3 5 2 3
2 1 2 3 1 3 4 1 2 3 3 0 2 2 3 4 1 3 7 6 8 4 5 2 3 4 3 4 3 4 7 9 7 3 2 8 5 2 4 1 4 6 5 5 4
2 1 0 3 1 4 1 2 2 3 3 1 1 1 2 2 5 3 4 5 7 11 8 4 3 3 7 7 8 8 7 10 15 13 8 2 9 10 2 4 2 2 3 5 5
5 4 1 3 4 2 2 5 5 2 5 2 2 3 2 1 1 4 6 4 2 5 6 7 3 2 5 3 3 4 9 11 10 10 19 11 21 9 8 1 5 4 5 7 6
1 0 1 7 5 3 4 5 7 5 5 2 5 1 2 2 5 6 7 6 6 5 3 2 3 4 4 3 4 6 7 10 6 7 9 10 17 3 6 8 6 6 7 6 6
Wind_Direction
347 342 339 336 334 332 331 331 329 330 331 328 326 326 323 318 309 298 285 270 274 287 312 279 277 261 75 157 139 126 278 254 234 255 253 134 233 105 353 117 85 66 29 121 137
340 336 333 330 327 326 324 323 322 322 321 320 321 324 324 328 309 293 269 261 255 239 250 239 260 190 220 184 156 191 208 270 274 355 0 2 349 55 317 131 116 86 89 101 128
336 335 333 331 330 327 322 319 317 314 312 312 313 316 323 326 299 265 17 265 236 228 230 239 250 264 206 156 165 172 201 210 265 286 333 342 340 327 293 219 165 151 141 137 154
333 334 332 329 327 325 323 319 315 310 309 308 307 307 316 305 269 61 18 350 317 249 224 238 235 240 225 211 162 164 219 210 247 268 278 300 316 320 314 311 358 173 147 147 169
331 336 335 331 328 325 321 318 314 310 309 309 306 305 310 270 254 271 311 309 266 281 217 211 217 215 231 199 170 205 172 213 234 275 283 289 276 287 298 305 56 109 133 156 172
333 334 331 328 327 324 322 317 312 310 311 311 305 298 268 268 282 300 322 311 275 265 259 208 209 207 250 247 199 186 198 192 205 234 275 277 296 292 286 268 170 128 144 166 177
331 333 329 326 325 324 321 316 310 315 312 310 311 303 264 258 297 293 292 274 286 263 267 214 223 185 208 251 244 216 191 184 198 198 253 238 269 265 271 291 288 156 168 175 180
330 331 325 326 326 326 322 314 313 315 309 297 288 300 268 6 349 337 320 298 284 245 256 224 216 232 248 260 261 204 210 206 190 166 210 173 264 291 230 243 236 182 196 176 184
337 334 325 328 330 328 322 312 308 302 302 293 210 311 276 300 300 274 261 259 290 270 261 191 194 217 251 231 222 202 193 217 182 177 147 182 247 253 264 271 227 225 206 176 174
342 339 332 331 333 331 324 309 298 291 325 151 39 332 138 320 305 292 299 247 240 257 197 177 157 179 235 193 195 191 202 188 214 176 192 191 233 239 276 300 239 228 224 186 175
338 334 329 331 336 335 328 341 9 351 24 351 293 260 306 301 318 355 336 278 224 129 162 163 161 194 201 211 226 207 192 222 237 166 165 194 226 243 236 239 271 268 245 193 182
335 332 329 330 336 326 357 50 37 288 313 292 270 299 346 306 334 17 338 7 143 148 150 155 211 190 212 213 238 266 261 209 70 68 179 198 227 237 268 257 226 237 252 228 177
329 329 328 326 330 294 14 39 341 323 272 308 308 358 330 334 19 350 357 357 119 187 153 144 180 191 216 199 220 248 248 244 128 122 342 14 274 251 220 235 231 233 236 222 199
325 326 328 327 291 331 53 356 332 314 325 0 3 22 350 347 62 13 17 15 7 166 270 196 25 200 176 233 219 237 247 323 110 102 199 166 277 217 216 218 224 227 220 240 225
327 322 322 339 313 344 340 327 325 215 52 324 353 300 17 37 317 10 4 33 36 15 314 26 179 128 159 213 241 298 88 84 78 67 38 187 249 251 235 227 222 211 209 209 224
3 2 325 335 260 25 329 310 236 262 342 345 328 333 353 61 4 132 44 55 159 31 31 332 289 40 215 217 162 105 71 51 65 46 294 228 217 252 233 178 189 193 189 203 205
351 341 350 319 334 324 315 270 24 67 343 325 335 326 9 8 30 10 51 36 20 79 61 0 13 343 331 88 21 86 127 64 35 1 231 181 238 243 248 59 72 61 76 50 108
345 316 302 338 328 326 294 35 59 245 335 317 322 347 12 2 7 29 39 37 39 358 131 182 207 217 252 162 162 212 197 150 193 195 269 206 247 242 299 68 65 143 126 82 138
320 207 250 354 329 317 28 46 75 58 333 332 335 28 351 0 353 14 67 28 14 349 35 0 50 316 85 297 150 192 235 31 42 33 82 219 254 292 268 266 207 243 155 295 290
313 324 84 332 332 296 62 101 235 312 348 329 34 17 0 353 12 354 36 20 359 7 337 40 94 11 321 323 322 273 24 133 338 144 231 272 261 225 60 217 131 105 53 40 16
270 43 333 335 300 43 68 77 52 232 19 15 46 14 357 358 351 6 18 34 6 354 343 350 53 10 298 23 308 179 261 240 246 248 225 312 261 329 67 56 53 33 14 9 347
20 54 12 323 49 50 68 61 330 9 225 109 270 351 354 354 5 37 31 23 6 10 4 15 337 105 139 147 125 350 286 275 175 294 265 43 270 7 75 68 35 2 34 30 9
114 264 76 300 115 105 148 139 250 210 271 103 260 47 326 351 11 20 3 8 6 29 14 348 29 90 158 108 133 192 199 201 318 5 234 167 267 12 36 19 69 39 8 9 353
106 124 11 28 103 107 149 131 157 214 273 171 358 275 339 6 346 303 358 3 331 13 310 338 318 1 1 10 348 254 186 177 191 179 240 231 286 294 212 101 61 42 28 1 343
48 114 111 112 67 93 54 167 147 183 279 136 165 203 43 18 343 15 351 327 335 43 341 78 334 0 306 295 278 305 271 203 204 215 234 161 229 252 67 58 93 349 340 327 308
141 156 199 103 128 133 128 209 194 184 151 234 216 181 146 132 308 282 319 331 276 352 355 353 294 333 294 325 8 275 286 290 272 232 245 242 260 255 288 253 201 247 323 295 314
242 218 224 150 170 170 198 173 206 195 216 173 202 277 286 327 355 319 306 283 267 303 335 326 346 12 273 315 322 331 234 236 253 232 256 257 266 304 280 255 234 251 244 261 267